Flag for U.S.A. Weather past 2 weeks in Fort Wayne, Indiana, U.S.A.

Now
47 °F

Overcast.


Feels Like: 43 °F
Forecast: 45 / 58 °F
Wind: 7 mph from Southwest

Location: Fort Wayne International Airport

Current Time: Oct 20, 2014 at 1:32:07 AM

Latest Report: Oct 19, 2014 at 10:54 PM


Visibility: 10 mi

Pressure: 30.03 "Hg

Humidity: 74%

Dew point: 39 °F

Location of Fort WayneLocation

Historic Weather in Fort Wayne — Graph

°F

Fort Wayne temperature yesterday

Maximum temperature yesterday: 54 °F (at 4:54 PM)
Minimum temperature yesterday: 32 °F (at 7:54 AM)
Average temperature yesterday: 44 °F

Past Weeks' High & Low Weather Summary

 TemperatureHumidityPressure
High75 °F (Oct 13, 2:54 PM)100% (Oct 16, 3:54 AM)30.26 "Hg (Oct 16, 3:54 AM)
Low32 °F (Oct 19, 7:54 AM)31% (Oct 8, 4:54 PM)29.54 "Hg (Oct 14, 1:54 PM)
Average52 °F77%29.90 "Hg
* Reported Oct 4 10:54 PM — Oct 19 10:54 PM, Fort Wayne, Weather by CustomWeather, © 2014

Note: Actual official high and low records may vary slightly from our data, if they occured in-between our weather recording intervals... More about our weather records

Advertising

Fort Wayne weather history for previous 24 hours

 ConditionsComfort  
Time TempWeatherWind HumidityBarometerVisibility
10:54 PM
Oct 19
47 °FOvercast.7 mph74%30.03 "Hg10 mi
9:54 PM47 °FOvercast.8 mph74%30.04 "Hg10 mi
8:54 PM47 °FPassing clouds.7 mph71%30.06 "Hg10 mi
7:54 PM47 °FPassing clouds.6 mph74%30.08 "Hg10 mi
6:54 PM50 °FPartly sunny.6 mph63%30.09 "Hg10 mi
5:54 PM53 °FPartly sunny.10 mph52%30.10 "Hg10 mi
4:54 PM54 °FPartly sunny.10 mph53%30.12 "Hg10 mi
3:54 PM53 °FHigh level clouds.10 mph55%30.14 "Hg10 mi
2:54 PM52 °FHigh level clouds.6 mph53%30.17 "Hg10 mi
1:54 PM51 °FOvercast.6 mph54%30.21 "Hg10 mi
12:54 PM49 °FMore clouds than sun.7 mph61%30.24 "Hg10 mi
11:54 AM48 °FPartly sunny.3 mph63%30.25 "Hg10 mi
10:54 AM44 °FPartly sunny.5 mph68%30.26 "Hg10 mi
9:54 AM40 °FPartly sunny.No wind83%30.26 "Hg10 mi
8:54 AM36 °FPassing clouds.No wind89%30.23 "Hg10 mi
7:54 AM32 °FPassing clouds.No wind96%30.22 "Hg10 mi
6:54 AM33 °FPassing clouds.3 mph92%30.22 "Hg10 mi
5:54 AM34 °FClear.5 mph92%30.21 "Hg10 mi
4:54 AM36 °FClear.3 mph89%30.21 "Hg10 mi
3:54 AM38 °FPassing clouds.6 mph86%30.21 "Hg10 mi
2:54 AM41 °FPassing clouds.6 mph80%30.20 "Hg10 mi
1:54 AM43 °FOvercast.9 mph71%30.19 "Hg10 mi
Weather by CustomWeather, © 2014

See weather overviewHow to use our weather pages